ON7AMI-5 Weather Reports


Display with metric or nautical units.
time (UTC)temp
F
wind
direction
speed
MPH
gust
MPH
rain 1hr
in
rain 24hr
in
rain mn
in
humidity
%
barometer
mb
20260510053535 53 29 3.0 14.0 0.00 0.00 0.00 70 1016.6
20260510053035 52 47 6.0 12.0 0.00 0.00 0.00 70 1016.6
20260510052535 52 46 7.0 12.0 0.00 0.00 0.00 70 1016.6
20260510052035 52 53 6.0 14.0 0.00 0.00 0.00 70 1016.5
20260510051035 52 19 7.0 16.0 0.00 0.00 0.00 70 1016.4
20260510050534 52 42 1.0 4.0 0.00 0.00 0.00 70 1016.4
20260510050035 52 32 3.0 6.0 0.00 0.00 0.00 70 1016.4
20260510045035 52 28 5.0 12.0 0.00 0.00 0.00 70 1016.4
20260510044535 52 23 2.0 6.0 0.00 0.00 0.00 70 1016.4
20260510044035 52 63 4.0 14.0 0.00 0.00 0.00 69 1016.4
20260510043535 52 2 3.0 10.0 0.00 0.00 0.00 69 1016.4
20260510043036 52 57 5.0 10.0 0.00 0.00 0.00 69 1016.4
20260510042535 52 24 4.0 8.0 0.00 0.00 0.00 69 1016.3
20260510042035 52 32 1.0 4.0 0.00 0.00 0.00 69 1016.3
20260510041535 52 36 4.0 12.0 0.00 0.00 0.00 69 1016.2
20260510041035 52 25 6.0 12.0 0.00 0.00 0.00 69 1016.2
20260510040535 52 73 5.0 10.0 0.00 0.00 0.00 68 1016.1
20260510040034 52 48 2.0 6.0 0.00 0.00 0.00 68 1016.2
20260510035538 52 36 4.0 8.0 0.00 0.00 0.00 68 1016.2
20260510035037 52 31 7.0 16.0 0.00 0.00 0.00 68 1016.2
20260510034534 52 45 5.0 10.0 0.00 0.00 0.00 68 1016.3
20260510034034 52 43 6.0 18.0 0.00 0.00 0.00 68 1016.4
20260510033534 52 28 3.0 6.0 0.00 0.00 0.00 68 1016.4
20260510033034 52 34 4.0 8.0 0.00 0.00 0.00 67 1016.5
20260510032534 52 36 5.0 8.0 0.00 0.00 0.00 67 1016.5
20260510032039 52 52 7.0 18.0 0.00 0.00 0.00 67 1016.6
20260510031537 53 15 2.0 6.0 0.00 0.00 0.00 67 1016.6
20260510031033 53 86 0.0 4.0 0.00 0.00 0.00 67 1016.5
20260510030535 53 34 3.0 6.0 0.00 0.00 0.00 66 1016.4
20260510025530 53 42 5.0 12.0 0.00 0.00 0.00 66 1016.4
20260510025037 53 50 4.0 8.0 0.00 0.00 0.00 66 1016.5
20260510024036 53 18 5.0 10.0 0.00 0.00 0.00 66 1016.5
20260510023035 54 53 4.0 6.0 0.00 0.00 0.00 65 1016.5
20260510022530 54 37 3.0 12.0 0.00 0.00 0.00 65 1016.5
20260510022045 54 25 9.0 16.0 0.00 0.00 0.00 65 1016.5
20260510021537 54 43 4.0 8.0 0.00 0.00 0.00 65 1016.5
20260510021034 54 48 5.0 8.0 0.00 0.00 0.00 65 1016.5
20260510020534 54 51 3.0 12.0 0.00 0.00 0.00 64 1016.5
20260510020033 54 18 8.0 12.0 0.00 0.00 0.00 64 1016.5
20260510015534 54 46 6.0 12.0 0.00 0.00 0.00 64 1016.5
20260510014533 54 84 4.0 10.0 0.00 0.00 0.00 64 1016.6
20260510014028 54 44 5.0 10.0 0.00 0.00 0.00 64 1016.8
20260510013034 54 3 1.0 4.0 0.00 0.00 0.00 63 1016.8
20260510012534 54 46 2.0 6.0 0.00 0.00 0.00 63 1016.8
20260510012033 54 32 5.0 12.0 0.00 0.00 0.00 63 1016.8
20260510011533 54 23 2.0 6.0 0.00 0.00 0.00 63 1016.8
20260510011033 54 16 5.0 14.0 0.00 0.00 0.00 63 1016.7
20260510010538 54 53 2.0 6.0 0.00 0.00 0.00 63 1016.8
20260510010033 54 342 2.0 6.0 0.00 0.00 0.00 62 1016.8
20260510005533 54 15 2.0 6.0 0.00 0.00 0.00 62 1016.8
20260510005034 54 28 5.0 10.0 0.00 0.00 0.00 62 1016.9
20260510004537 54 26 4.0 8.0 0.00 0.00 0.00 62 1016.9
20260510004033 54 43 4.0 6.0 0.00 0.00 0.00 62 1017.0
20260510003538 54 29 4.0 8.0 0.00 0.00 0.00 62 1017.0
20260510003034 54 38 6.0 12.0 0.00 0.00 0.00 62 1017.1
20260510002538 54 10 5.0 10.0 0.00 0.00 0.00 62 1017.1
20260510002029 53 26 3.0 6.0 0.00 0.00 0.00 61 1017.1
20260510001534 53 19 3.0 6.0 0.00 0.00 0.00 61 1017.0
20260510001037 53 26 3.0 10.0 0.00 0.00 0.00 61 1017.0
20260510000538 52 22 1.0 4.0 0.00 0.00 0.00 61 1017.1
20260510000033 52 21 0.0 0.0 0.00 0.00 0.00 61 1017.2
20260509235531 53 31 2.0 4.0 0.00 0.00 0.00 61 1017.2
20260509235038 53 38 3.0 6.0 0.00 0.00 0.00 61 1017.1
20260509234032 53 27 4.0 8.0 0.00 0.00 0.00 60 1017.1
20260509233539 53 37 6.0 8.0 0.00 0.00 0.00 60 1017.1
20260509233034 52 20 5.0 10.0 0.00 0.00 0.00 60 1017.2
20260509232529 52 34 3.0 4.0 0.00 0.00 0.00 60 1017.2
20260509232035 51 35 2.0 4.0 0.00 0.00 0.00 60 1017.3
20260509231530 52 25 3.0 6.0 0.00 0.00 0.00 59 1017.4
20260509230539 52 34 2.0 4.0 0.00 0.00 0.00 59 1017.4
20260509230035 52 30 2.0 6.0 0.00 0.00 0.00 59 1017.4
20260509225532 52 28 4.0 8.0 0.00 0.00 0.00 59 1017.4
20260509225040 52 3 2.0 4.0 0.00 0.00 0.00 59 1017.5
20260509224538 52 22 4.0 6.0 0.00 0.00 0.00 58 1017.6
20260509223540 52 9 3.0 4.0 0.00 0.00 0.00 58 1017.6
20260509223038 53 30 1.0 4.0 0.00 0.00 0.00 58 1017.6
20260509222531 53 19 3.0 6.0 0.00 0.00 0.00 58 1017.5
20260509222039 53 20 4.0 6.0 0.00 0.00 0.00 58 1017.6
20260509221529 53 11 2.0 4.0 0.00 0.00 0.00 58 1017.5
20260509221034 53 10 3.0 4.0 0.00 0.00 0.00 57 1017.5
20260509220531 53 11 2.0 4.0 0.00 0.00 0.00 57 1017.4
20260509220029 54 11 3.0 4.0 0.00 0.00 0.00 57 1017.4
20260509215535 54 18 3.0 4.0 0.00 0.00 0.00 57 1017.3
20260509215035 54 18 0.0 0.0 0.00 0.00 0.00 57 1017.4
20260509214528 54 18 1.0 2.0 0.00 0.00 0.00 57 1017.4
20260509214036 55 18 2.0 4.0 0.00 0.00 0.00 57 1017.3
20260509213038 55 14 3.0 6.0 0.00 0.00 0.00 56 1017.4
20260509212535 55 9 0.0 4.0 0.00 0.00 0.00 56 1017.4
20260509212035 56 23 4.0 8.0 0.00 0.00 0.00 56 1017.2
20260509211535 56 17 5.0 8.0 0.00 0.00 0.00 56 1017.2
20260509211035 56 28 4.0 8.0 0.00 0.00 0.00 56 1017.2
20260509210535 56 28 4.0 6.0 0.00 0.00 0.00 56 1017.2
20260509210035 56 28 2.0 4.0 0.00 0.00 0.00 56 1017.2
20260509205036 57 18 3.0 6.0 0.00 0.00 0.00 56 1017.2
20260509204036 57 21 4.0 6.0 0.00 0.00 0.00 55 1017.2
20260509203535 57 21 5.0 8.0 0.00 0.00 0.00 55 1017.3
20260509203035 58 19 4.0 8.0 0.00 0.00 0.00 55 1017.3
20260509202535 58 24 3.0 6.0 0.00 0.00 0.00 55 1017.3
20260509201535 58 21 3.0 8.0 0.00 0.00 0.00 55 1017.2
20260509201035 58 10 5.0 8.0 0.00 0.00 0.00 55 1017.2
20260509200536 59 9 5.0 8.0 0.00 0.00 0.00 54 1017.2
20260509200035 59 13 6.0 8.0 0.00 0.00 0.00 54 1017.2
20260509195535 59 11 5.0 8.0 0.00 0.00 0.00 54 1017.3
20260509195036 60 10 5.0 8.0 0.00 0.00 0.00 54 1017.2
20260509194536 60 27 5.0 10.0 0.00 0.00 0.00 54 1017.1
20260509194029 60 16 7.0 10.0 0.00 0.00 0.00 54 1017.1
20260509193535 61 23 9.0 12.0 0.00 0.00 0.00 54 1017.0
20260509193035 61 22 7.0 10.0 0.00 0.00 0.00 54 1017.0
20260509192536 61 28 8.0 12.0 0.00 0.00 0.00 53 1017.0
20260509192035 61 24 8.0 12.0 0.00 0.00 0.00 53 1016.9
20260509191535 62 30 6.0 8.0 0.00 0.00 0.00 53 1016.9
20260509190535 62 15 8.0 12.0 0.00 0.00 0.00 53 1016.9
20260509190035 63 31 13.0 18.0 0.00 0.00 0.00 53 1017.0
20260509185035 63 29 13.0 16.0 0.00 0.00 0.00 53 1017.0
20260509184535 63 15 9.0 14.0 0.00 0.00 0.00 53 1016.7
20260509184035 64 30 7.0 12.0 0.00 0.00 0.00 53 1016.7
20260509183536 64 21 10.0 16.0 0.00 0.00 0.00 52 1016.7
20260509183035 65 20 10.0 16.0 0.00 0.00 0.00 52 1016.8
20260509182536 65 33 13.0 18.0 0.00 0.00 0.00 52 1016.8
20260509182029 66 26 11.0 18.0 0.00 0.00 0.00 52 1016.7
20260509181535 66 14 9.0 16.0 0.00 0.00 0.00 52 1016.8
20260509181035 66 22 10.0 14.0 0.00 0.00 0.00 52 1016.8
20260509180035 67 24 8.0 14.0 0.00 0.00 0.00 52 1016.8
20260509175535 68 12 13.0 20.0 0.00 0.00 0.00 52 1016.7
20260509174535 68 17 10.0 14.0 0.00 0.00 0.00 52 1016.8
20260509174035 69 9 8.0 12.0 0.00 0.00 0.00 52 1016.7
20260509173531 69 5 9.0 12.0 0.00 0.00 0.00 52 1016.6
20260509173035 69 29 11.0 16.0 0.00 0.00 0.00 52 1016.6
20260509172535 69 28 13.0 18.0 0.00 0.00 0.00 52 1016.5
20260509172035 69 22 13.0 18.0 0.00 0.00 0.00 52 1016.5
20260509171535 70 21 10.0 14.0 0.00 0.00 0.00 52 1016.5
20260509171035 70 32 10.0 14.0 0.00 0.00 0.00 52 1016.5
20260509170536 70 7 12.0 20.0 0.00 0.00 0.00 52 1016.5
20260509170036 71 28 9.0 14.0 0.00 0.00 0.00 52 1016.3
20260509165537 70 38 6.0 10.0 0.00 0.00 0.00 52 1016.4
20260509165037 70 9 2.0 4.0 0.00 0.00 0.00 52 1016.5
20260509164537 70 39 2.0 6.0 0.00 0.00 0.00 53 1016.6
20260509164036 70 21 2.0 4.0 0.00 0.00 0.00 53 1016.7
20260509163537 71 275 1.0 4.0 0.00 0.00 0.00 53 1016.8
20260509163036 72 89 4.0 10.0 0.00 0.00 0.00 53 1016.7
20260509162536 73 17 1.0 4.0 0.00 0.00 0.00 53 1016.8
20260509162036 74 98 3.0 6.0 0.00 0.00 0.00 53 1016.8
20260509161036 75 112 3.0 6.0 0.00 0.00 0.00 53 1016.9
20260509160540 75 319 0.0 2.0 0.00 0.00 0.00 53 1016.9
20260509160036 74 44 2.0 6.0 0.00 0.00 0.00 54 1016.8
20260509155536 74 130 5.0 10.0 0.00 0.00 0.00 54 1016.8
20260509154536 75 80 2.0 8.0 0.00 0.00 0.00 54 1016.8
20260509154037 76 296 2.0 6.0 0.00 0.00 0.00 54 1016.8
20260509153536 75 42 3.0 8.0 0.00 0.00 0.00 55 1016.8
20260509153036 74 40 3.0 10.0 0.00 0.00 0.00 55 1016.8
20260509152537 76 33 2.0 6.0 0.00 0.00 0.00 55 1016.7
20260509152037 74 122 4.0 10.0 0.00 0.00 0.00 55 1016.7
20260509151537 75 106 5.0 12.0 0.00 0.00 0.00 55 1016.8
20260509151037 75 14 7.0 10.0 0.00 0.00 0.00 56 1016.8
20260509150037 76 113 4.0 10.0 0.00 0.00 0.00 56 1016.8
20260509145530 76 129 1.0 4.0 0.00 0.00 0.00 56 1016.9
20260509145037 75 357 3.0 10.0 0.00 0.00 0.00 57 1016.8
20260509144536 74 123 9.0 12.0 0.00 0.00 0.00 57 1016.9
20260509144036 74 276 2.0 4.0 0.00 0.00 0.00 57 1016.9
20260509143536 73 119 8.0 12.0 0.00 0.00 0.00 57 1016.9
20260509142537 72 40 6.0 10.0 0.00 0.00 0.00 58 1017.2
20260509142037 73 305 2.0 4.0 0.00 0.00 0.00 58 1017.2
20260509141537 73 35 2.0 4.0 0.00 0.00 0.00 58 1017.3
20260509141036 75 50 8.0 12.0 0.00 0.00 0.00 58 1017.2
20260509140537 75 142 5.0 10.0 0.00 0.00 0.00 58 1017.3
20260509140036 76 307 2.0 6.0 0.00 0.00 0.00 59 1017.3
20260509135530 76 129 3.0 6.0 0.00 0.00 0.00 59 1017.3
20260509135037 76 149 1.0 4.0 0.00 0.00 0.00 59 1017.3
20260509134537 75 284 4.0 6.0 0.00 0.00 0.00 59 1017.3
20260509134030 75 79 3.0 6.0 0.00 0.00 0.00 59 1017.3
20260509133536 75 99 4.0 6.0 0.00 0.00 0.00 60 1017.3
20260509133036 74 132 6.0 12.0 0.00 0.00 0.00 60 1017.3
20260509132530 74 88 5.0 10.0 0.00 0.00 0.00 60 1017.3
20260509132037 74 137 10.0 14.0 0.00 0.00 0.00 60 1017.3
20260509131536 73 337 3.0 6.0 0.00 0.00 0.00 61 1017.4
20260509131030 73 101 4.0 6.0 0.00 0.00 0.00 61 1017.5
20260509130537 72 115 6.0 12.0 0.00 0.00 0.00 61 1017.6
20260509130037 72 149 6.0 10.0 0.00 0.00 0.00 61 1017.7
20260509125037 74 45 0.0 2.0 0.00 0.00 0.00 62 1017.8
20260509124536 73 358 4.0 8.0 0.00 0.00 0.00 62 1017.9
20260509124035 75 17 2.0 6.0 0.00 0.00 0.00 62 1017.8
20260509123536 75 133 4.0 8.0 0.00 0.00 0.00 62 1017.8
20260509123036 73 20 4.0 8.0 0.00 0.00 0.00 62 1017.9
20260509122531 72 217 4.0 6.0 0.00 0.00 0.00 63 1018.0
20260509122037 73 152 2.0 4.0 0.00 0.00 0.00 63 1018.0
20260509121536 74 33 1.0 4.0 0.00 0.00 0.00 63 1018.0
20260509121036 73 122 2.0 6.0 0.00 0.00 0.00 63 1018.2
20260509120537 73 196 0.0 4.0 0.00 0.00 0.00 64 1018.3
20260509120036 74 38 1.0 4.0 0.00 0.00 0.00 64 1018.3
20260509115536 72 281 2.0 4.0 0.00 0.00 0.00 64 1018.3
20260509115037 72 38 3.0 6.0 0.00 0.00 0.00 64 1018.4
20260509114536 70 58 1.0 8.0 0.00 0.00 0.00 65 1018.4
20260509114035 70 31 2.0 8.0 0.00 0.00 0.00 65 1018.5
20260509113536 73 109 4.0 10.0 0.00 0.00 0.00 65 1018.5
20260509113035 73 269 1.0 4.0 0.00 0.00 0.00 65 1018.6
20260509112536 73 129 7.0 14.0 0.00 0.00 0.00 66 1018.6
20260509111536 73 317 2.0 6.0 0.00 0.00 0.00 66 1018.7
20260509111036 72 154 2.0 4.0 0.00 0.00 0.00 66 1018.8
20260509110035 72 109 5.0 10.0 0.00 0.00 0.00 67 1018.8
20260509105535 71 121 6.0 12.0 0.00 0.00 0.00 67 1018.9
20260509105035 72 136 7.0 12.0 0.00 0.00 0.00 67 1018.9
20260509104535 71 111 4.0 8.0 0.00 0.00 0.00 68 1019.0
20260509104035 72 279 3.0 8.0 0.00 0.00 0.00 68 1018.9
20260509103536 71 109 5.0 12.0 0.00 0.00 0.00 68 1019.0
20260509103039 71 111 2.0 10.0 0.00 0.00 0.00 68 1019.0
20260509102536 71 68 4.0 10.0 0.00 0.00 0.00 68 1019.0
20260509102035 71 255 3.0 6.0 0.00 0.00 0.00 69 1019.0
20260509101536 71 330 1.0 4.0 0.00 0.00 0.00 69 1019.1
20260509101036 70 300 4.0 10.0 0.00 0.00 0.00 69 1019.2
20260509100536 70 108 6.0 14.0 0.00 0.00 0.00 69 1019.1
20260509095035 70 34 8.0 14.0 0.00 0.00 0.00 70 1019.1
20260509094535 69 78 5.0 10.0 0.00 0.00 0.00 70 1019.1
20260509094035 69 44 8.0 12.0 0.00 0.00 0.00 70 1019.0
20260509093536 69 306 0.0 2.0 0.00 0.00 0.00 71 1019.0
20260509093044 69 107 3.0 8.0 0.00 0.00 0.00 71 1019.0
20260509092535 68 314 1.0 4.0 0.00 0.00 0.00 71 1018.9
20260509092035 68 203 2.0 4.0 0.00 0.00 0.00 71 1019.2
20260509091529 67 143 5.0 10.0 0.00 0.00 0.00 71 1019.3
20260509090536 67 128 8.0 14.0 0.00 0.00 0.00 72 1019.3
20260509090030 68 144 2.0 4.0 0.00 0.00 0.00 72 1019.3
20260509085536 67 131 3.0 10.0 0.00 0.00 0.00 72 1019.2
20260509085036 67 156 3.0 6.0 0.00 0.00 0.00 73 1019.3
20260509084528 66 119 7.0 14.0 0.00 0.00 0.00 73 1019.4
20260509084036 66 135 5.0 14.0 0.00 0.00 0.00 73 1019.3
20260509083535 66 112 6.0 14.0 0.00 0.00 0.00 73 1019.3
20260509083029 66 127 8.0 14.0 0.00 0.00 0.00 74 1019.3
20260509082536 66 132 6.0 14.0 0.00 0.00 0.00 74 1019.4
20260509082036 66 126 2.0 8.0 0.00 0.00 0.00 74 1019.4
20260509081536 65 260 4.0 8.0 0.00 0.00 0.00 74 1019.4
20260509081035 65 263 1.0 4.0 0.00 0.00 0.00 74 1019.5
20260509080536 64 94 4.0 8.0 0.00 0.00 0.00 75 1019.4
20260509075535 64 198 2.0 4.0 0.00 0.00 0.00 75 1019.4
20260509074536 64 93 3.0 8.0 0.00 0.00 0.00 75 1019.5
20260509073535 62 211 1.0 2.0 0.00 0.00 0.00 76 1019.4
20260509073035 62 138 1.0 6.0 0.00 0.00 0.00 76 1019.3
20260509072534 61 345 1.0 4.0 0.00 0.00 0.00 76 1019.4
20260509072035 61 128 3.0 8.0 0.00 0.00 0.00 76 1019.4
20260509071535 60 68 3.0 8.0 0.00 0.00 0.00 76 1019.5
20260509071035 60 99 0.0 4.0 0.00 0.00 0.00 77 1019.4
20260509070535 59 110 3.0 6.0 0.00 0.00 0.00 77 1019.5
20260509070035 59 174 0.0 2.0 0.00 0.00 0.00 77 1019.4
20260509065035 57 156 1.0 4.0 0.00 0.00 0.00 77 1019.4
20260509064535 56 105 3.0 8.0 0.00 0.00 0.00 77 1019.3
20260509064034 56 334 0.0 2.0 0.00 0.00 0.00 77 1019.2
20260509063035 54 59 0.0 4.0 0.00 0.00 0.00 77 1019.2
20260509062536 53 139 0.0 4.0 0.00 0.00 0.00 78 1019.1
20260509062035 52 113 1.0 6.0 0.00 0.00 0.00 78 1019.0
20260509061535 52 142 0.0 2.0 0.00 0.00 0.00 78 1019.1
20260509061035 51 143 0.0 4.0 0.00 0.00 0.00 78 1019.1
20260509060034 50 138 1.0 4.0 0.00 0.00 0.00 77 1019.3
20260509055535 50 60 0.0 2.0 0.00 0.00 0.00 77 1019.3
20260509055035 50 84 0.0 2.0 0.00 0.00 0.00 77 1019.3
20260509054535 49 125 0.0 2.0 0.00 0.00 0.00 77 1019.2
20260509054035 49 104 1.0 2.0 0.00 0.00 0.00 77 1019.1